Time,TemperatureF,DewpointF,PressureIn,WindDirection,WindDirectionDegrees,WindSpeedMPH,WindSpeedGustMPH,Humidity,HourlyPrecipIn,Conditions,Clouds,dailyrainin,SoftwareType,DateUTC
2013-05-04 00:01:00,54.0,22.0,-100.00,NNE,29,4.0,6.0,28,-99.99,,,-99.99,,2013-05-04 07:01:00,
2013-05-04 00:11:00,54.0,22.0,-100.00,NNE,29,3.0,5.0,28,-99.99,,,-99.99,,2013-05-04 07:11:00,
2013-05-04 00:21:00,54.0,22.0,-100.00,NE,37,4.0,5.0,29,-99.99,,,-99.99,,2013-05-04 07:21:00,
2013-05-04 00:31:00,54.0,22.0,-100.00,NNE,28,3.0,5.0,29,-99.99,,,-99.99,,2013-05-04 07:31:00,
2013-05-04 00:41:00,53.0,22.0,-100.00,NNE,26,4.0,6.0,30,-99.99,,,-99.99,,2013-05-04 07:41:00,
2013-05-04 00:52:00,53.0,22.0,-100.00,NNE,27,4.0,6.0,30,-99.99,,,-99.99,,2013-05-04 07:52:00,
2013-05-04 01:01:00,52.0,22.0,-100.00,NE,40,5.0,7.0,31,-99.99,,,-99.99,,2013-05-04 08:01:00,
2013-05-04 01:11:00,52.0,22.0,-100.00,NE,34,5.0,7.0,31,-99.99,,,-99.99,,2013-05-04 08:11:00,
2013-05-04 01:21:00,52.0,22.0,-100.00,NE,42,6.0,7.0,31,-99.99,,,-99.99,,2013-05-04 08:21:00,
2013-05-04 01:31:00,53.0,22.0,-100.00,NE,47,6.0,8.0,30,-99.99,,,-99.99,,2013-05-04 08:31:00,
2013-05-04 01:41:00,52.0,22.0,-100.00,NE,44,5.0,8.0,31,-99.99,,,-99.99,,2013-05-04 08:41:00,
2013-05-04 01:52:00,52.0,22.0,-100.00,NE,52,5.0,8.0,31,-99.99,,,-99.99,,2013-05-04 08:52:00,
2013-05-04 02:02:00,53.0,22.0,-100.00,NE,54,6.0,8.0,29,-99.99,,,-99.99,,2013-05-04 09:02:00,
2013-05-04 02:11:00,51.0,21.0,-100.00,NE,43,6.0,8.0,31,-99.99,,,-99.99,,2013-05-04 09:11:00,
2013-05-04 02:21:00,50.0,21.0,-100.00,NE,45,6.0,9.0,31,-99.99,,,-99.99,,2013-05-04 09:21:00,
2013-05-04 02:32:00,51.0,21.0,-100.00,NE,50,7.0,10.0,31,-99.99,,,-99.99,,2013-05-04 09:32:00,
2013-05-04 02:42:00,51.0,21.0,-100.00,NE,51,7.0,10.0,30,-99.99,,,-99.99,,2013-05-04 09:42:00,
2013-05-04 02:52:00,49.0,20.0,-100.00,NE,40,6.0,9.0,32,-99.99,,,-99.99,,2013-05-04 09:52:00,
2013-05-04 03:02:00,49.0,20.0,-100.00,NE,47,7.0,11.0,32,-99.99,,,-99.99,,2013-05-04 10:02:00,
2013-05-04 03:12:00,49.0,20.0,-100.00,NE,41,6.0,9.0,31,-99.99,,,-99.99,,2013-05-04 10:12:00,
2013-05-04 03:22:00,48.0,20.0,-100.00,NE,35,6.0,10.0,33,-99.99,,,-99.99,,2013-05-04 10:22:00,
2013-05-04 03:32:00,47.0,19.0,-100.00,NE,46,7.0,9.0,33,-99.99,,,-99.99,,2013-05-04 10:32:00,
2013-05-04 03:42:00,48.0,20.0,-100.00,NE,42,5.0,8.0,32,-99.99,,,-99.99,,2013-05-04 10:42:00,
2013-05-04 03:52:00,47.0,19.0,-100.00,NNE,27,5.0,8.0,33,-99.99,,,-99.99,,2013-05-04 10:52:00,
2013-05-04 04:02:00,46.0,19.0,-100.00,NNE,29,5.0,7.0,34,-99.99,,,-99.99,,2013-05-04 11:02:00,
2013-05-04 04:11:00,46.0,19.0,-100.00,NE,35,5.0,7.0,34,-99.99,,,-99.99,,2013-05-04 11:11:00,
2013-05-04 04:21:00,46.0,19.0,-100.00,NE,40,6.0,8.0,34,-99.99,,,-99.99,,2013-05-04 11:21:00,
2013-05-04 04:32:00,46.0,19.0,-100.00,NE,37,5.0,7.0,34,-99.99,,,-99.99,,2013-05-04 11:32:00,
2013-05-04 04:42:00,46.0,19.0,-100.00,NE,48,6.0,9.0,34,-99.99,,,-99.99,,2013-05-04 11:42:00,
2013-05-04 04:54:00,47.0,19.0,-100.00,NE,51,6.0,8.0,33,-99.99,,,-99.99,,2013-05-04 11:54:00,
2013-05-04 05:03:00,46.0,19.0,-100.00,NE,47,7.0,10.0,33,-99.99,,,-99.99,,2013-05-04 12:03:00,
2013-05-04 05:12:00,46.0,19.0,-100.00,NE,49,7.0,10.0,34,-99.99,,,-99.99,,2013-05-04 12:12:00,
2013-05-04 05:33:00,45.0,19.0,-100.00,NE,51,7.0,10.0,35,-99.99,,,-99.99,,2013-05-04 12:33:00,
2013-05-04 05:41:00,45.0,19.0,-100.00,NE,51,7.0,10.0,35,-99.99,,,-99.99,,2013-05-04 12:41:00,
2013-05-04 05:51:00,43.0,19.0,-100.00,NNE,29,5.0,8.0,38,-99.99,,,-99.99,,2013-05-04 12:51:00,
2013-05-04 06:01:00,44.0,19.0,-100.00,NE,36,7.0,10.0,37,-99.99,,,-99.99,,2013-05-04 13:01:00,
2013-05-04 06:11:00,44.0,19.0,-100.00,NE,44,7.0,10.0,36,-99.99,,,-99.99,,2013-05-04 13:11:00,
2013-05-04 06:21:00,44.0,19.0,-100.00,NE,43,8.0,11.0,37,-99.99,,,-99.99,,2013-05-04 13:21:00,
2013-05-04 06:41:00,43.0,20.0,-100.00,NNE,30,5.0,8.0,39,-99.99,,,-99.99,,2013-05-04 13:41:00,
2013-05-04 06:52:00,43.0,19.0,-100.00,NNE,33,5.0,7.0,38,-99.99,,,-99.99,,2013-05-04 13:52:00,
2013-05-04 07:02:00,44.0,20.0,-100.00,NE,36,5.0,7.0,38,-99.99,,,-99.99,,2013-05-04 14:02:00,
2013-05-04 07:11:00,44.0,19.0,-100.00,NNE,30,5.0,9.0,37,-99.99,,,-99.99,,2013-05-04 14:11:00,
2013-05-04 07:21:00,45.0,20.0,-100.00,NNE,23,5.0,7.0,36,-99.99,,,-99.99,,2013-05-04 14:21:00,
2013-05-04 07:32:00,47.0,20.0,-100.00,NNE,26,4.0,6.0,34,-99.99,,,-99.99,,2013-05-04 14:32:00,
2013-05-04 07:41:00,49.0,21.0,-100.00,NNE,28,5.0,7.0,33,-99.99,,,-99.99,,2013-05-04 14:41:00,
2013-05-04 07:51:00,51.0,21.0,-100.00,NE,42,6.0,8.0,31,-99.99,,,-99.99,,2013-05-04 14:51:00,
2013-05-04 08:01:00,53.0,20.0,-100.00,NE,44,5.0,8.0,27,-99.99,,,-99.99,,2013-05-04 15:01:00,
2013-05-04 08:11:00,55.0,21.0,-100.00,NE,43,5.0,8.0,26,-99.99,,,-99.99,,2013-05-04 15:11:00,
2013-05-04 08:21:00,58.0,22.0,-100.00,NE,37,4.0,7.0,25,-99.99,,,-99.99,,2013-05-04 15:21:00,
2013-05-04 08:33:00,61.0,22.0,-100.00,NNE,32,3.0,5.0,22,-99.99,,,-99.99,,2013-05-04 15:33:00,
2013-05-04 08:42:00,63.0,21.0,-100.00,NE,48,3.0,5.0,20,-99.99,,,-99.99,,2013-05-04 15:42:00,
2013-05-04 08:52:00,66.0,20.0,-100.00,NNE,27,2.0,3.0,17,-99.99,,,-99.99,,2013-05-04 15:52:00,
2013-05-04 09:03:00,66.0,20.0,-100.00,NNE,27,2.0,3.0,17,-99.99,,,-99.99,,2013-05-04 16:03:00,
2013-05-04 09:12:00,67.0,21.0,-100.00,WSW,250,3.0,6.0,17,-99.99,,,-99.99,,2013-05-04 16:12:00,
2013-05-04 09:22:00,67.0,21.0,-100.00,WSW,251,3.0,6.0,17,-99.99,,,-99.99,,2013-05-04 16:22:00,
2013-05-04 09:33:00,69.0,21.0,-100.00,SW,236,3.0,5.0,16,-99.99,,,-99.99,,2013-05-04 16:33:00,
2013-05-04 09:42:00,70.0,17.0,-100.00,SW,235,4.0,8.0,13,-99.99,,,-99.99,,2013-05-04 16:42:00,
2013-05-04 09:52:00,70.0,17.0,-100.00,SW,233,3.0,7.0,13,-99.99,,,-99.99,,2013-05-04 16:52:00,
2013-05-04 10:02:00,72.0,17.0,-100.00,SW,219,3.0,9.0,12,-99.99,,,-99.99,,2013-05-04 17:02:00,
2013-05-04 10:12:00,72.0,15.0,-100.00,SW,233,4.0,8.0,11,-99.99,,,-99.99,,2013-05-04 17:12:00,
2013-05-04 10:22:00,73.0,13.0,-100.00,WSW,249,5.0,9.0,10,-99.99,,,-99.99,,2013-05-04 17:22:00,
2013-05-04 10:32:00,73.0,11.0,-100.00,SW,235,6.0,10.0,9,-99.99,,,-99.99,,2013-05-04 17:32:00,
2013-05-04 10:42:00,74.0,12.0,-100.00,WSW,238,7.0,12.0,9,-99.99,,,-99.99,,2013-05-04 17:42:00,
2013-05-04 10:52:00,74.0,6.0,-100.00,SW,229,9.0,15.0,7,-99.99,,,-99.99,,2013-05-04 17:52:00,
2013-05-04 11:01:00,74.0,9.0,-100.00,SW,227,10.0,18.0,8,-99.99,,,-99.99,,2013-05-04 18:01:00,
2013-05-04 11:12:00,74.0,9.0,-100.00,SW,226,10.0,16.0,8,-99.99,,,-99.99,,2013-05-04 18:12:00,
2013-05-04 11:21:00,74.0,12.0,-100.00,SW,227,10.0,18.0,9,-99.99,,,-99.99,,2013-05-04 18:21:00,
2013-05-04 11:32:00,74.0,14.0,-100.00,SW,235,11.0,17.0,10,-99.99,,,-99.99,,2013-05-04 18:32:00,
2013-05-04 11:42:00,74.0,12.0,-100.00,WSW,241,10.0,16.0,9,-99.99,,,-99.99,,2013-05-04 18:42:00,
2013-05-04 11:52:00,75.0,10.0,-100.00,WSW,243,9.0,15.0,8,-99.99,,,-99.99,,2013-05-04 18:52:00,
2013-05-04 12:01:00,74.0,9.0,-100.00,SW,228,11.0,16.0,8,-99.99,,,-99.99,,2013-05-04 19:01:00,
2013-05-04 12:11:00,75.0,10.0,-100.00,WSW,239,9.0,14.0,8,-99.99,,,-99.99,,2013-05-04 19:11:00,
2013-05-04 12:21:00,75.0,10.0,-100.00,SW,231,10.0,17.0,8,-99.99,,,-99.99,,2013-05-04 19:21:00,
2013-05-04 12:31:00,76.0,10.0,-100.00,SW,232,9.0,15.0,8,-99.99,,,-99.99,,2013-05-04 19:31:00,
2013-05-04 12:42:00,76.0,7.0,-100.00,WSW,246,9.0,16.0,7,-99.99,,,-99.99,,2013-05-04 19:42:00,
2013-05-04 12:52:00,77.0,8.0,-100.00,SW,234,10.0,16.0,7,-99.99,,,-99.99,,2013-05-04 19:52:00,
2013-05-04 13:01:00,76.0,7.0,-100.00,WSW,240,10.0,19.0,7,-99.99,,,-99.99,,2013-05-04 20:01:00,
2013-05-04 13:11:00,76.0,7.0,-100.00,WSW,238,11.0,17.0,7,-99.99,,,-99.99,,2013-05-04 20:11:00,
2013-05-04 13:21:00,76.0,7.0,-100.00,SW,230,11.0,16.0,7,-99.99,,,-99.99,,2013-05-04 20:21:00,
2013-05-04 13:31:00,76.0,7.0,-100.00,SW,223,12.0,17.0,7,-99.99,,,-99.99,,2013-05-04 20:31:00,
2013-05-04 13:41:00,76.0,10.0,-100.00,SW,225,11.0,19.0,8,-99.99,,,-99.99,,2013-05-04 20:41:00,
2013-05-04 13:51:00,77.0,11.0,-100.00,SW,222,12.0,20.0,8,-99.99,,,-99.99,,2013-05-04 20:51:00,
2013-05-04 14:01:00,77.0,14.0,-100.00,WSW,237,11.0,18.0,9,-99.99,,,-99.99,,2013-05-04 21:01:00,
2013-05-04 14:11:00,77.0,16.0,-100.00,SW,234,12.0,21.0,10,-99.99,,,-99.99,,2013-05-04 21:11:00,
2013-05-04 14:22:00,76.0,18.0,-100.00,SW,228,13.0,21.0,11,-99.99,,,-99.99,,2013-05-04 21:22:00,
2013-05-04 14:33:00,77.0,20.0,-100.00,SW,230,12.0,19.0,12,-99.99,,,-99.99,,2013-05-04 21:33:00,
2013-05-04 14:43:00,76.0,20.0,-100.00,SW,235,12.0,20.0,12,-99.99,,,-99.99,,2013-05-04 21:43:00,
2013-05-04 14:52:00,76.0,23.0,-100.00,SW,235,15.0,23.0,14,-99.99,,,-99.99,,2013-05-04 21:52:00,
2013-05-04 15:02:00,76.0,25.0,-100.00,SW,232,14.0,23.0,15,-99.99,,,-99.99,,2013-05-04 22:02:00,
2013-05-04 15:12:00,76.0,28.0,-100.00,SW,231,13.0,21.0,17,-99.99,,,-99.99,,2013-05-04 22:12:00,
2013-05-04 15:22:00,75.0,30.0,-100.00,SW,234,14.0,21.0,19,-99.99,,,-99.99,,2013-05-04 22:22:00,
2013-05-04 15:32:00,75.0,29.0,-100.00,SW,234,14.0,22.0,18,-99.99,,,-99.99,,2013-05-04 22:32:00,
2013-05-04 15:42:00,74.0,28.0,-100.00,SW,235,15.0,25.0,18,-99.99,,,-99.99,,2013-05-04 22:42:00,
2013-05-04 15:52:00,73.0,30.0,-100.00,SW,236,17.0,26.0,20,-99.99,,,-99.99,,2013-05-04 22:52:00,
2013-05-04 16:02:00,73.0,32.0,-100.00,SW,233,15.0,23.0,22,-99.99,,,-99.99,,2013-05-04 23:02:00,
2013-05-04 16:11:00,72.0,32.0,-100.00,SW,231,17.0,23.0,23,-99.99,,,-99.99,,2013-05-04 23:11:00,
2013-05-04 16:21:00,72.0,32.0,-100.00,SW,231,17.0,25.0,23,-99.99,,,-99.99,,2013-05-04 23:21:00,
2013-05-04 16:32:00,71.0,30.0,-100.00,SW,234,16.0,24.0,22,-99.99,,,-99.99,,2013-05-04 23:32:00,
2013-05-04 16:42:00,71.0,29.0,-100.00,SW,230,16.0,25.0,21,-99.99,,,-99.99,,2013-05-04 23:42:00,
2013-05-04 16:52:00,70.0,28.0,-100.00,SW,233,16.0,22.0,21,-99.99,,,-99.99,,2013-05-04 23:52:00,
2013-05-04 17:01:00,70.0,28.0,-100.00,SW,221,15.0,23.0,21,-99.99,,,-99.99,,2013-05-05 00:01:00,
2013-05-04 17:11:00,70.0,28.0,-100.00,SW,229,13.0,19.0,21,-99.99,,,-99.99,,2013-05-05 00:11:00,
2013-05-04 17:21:00,70.0,28.0,-100.00,SW,231,14.0,21.0,21,-99.99,,,-99.99,,2013-05-05 00:21:00,
2013-05-04 17:31:00,69.0,26.0,-100.00,SW,234,13.0,22.0,20,-99.99,,,-99.99,,2013-05-05 00:31:00,
2013-05-04 17:42:00,69.0,26.0,-100.00,SW,234,13.0,22.0,20,-99.99,,,-99.99,,2013-05-05 00:42:00,
2013-05-04 17:51:00,68.0,25.0,-100.00,SW,235,14.0,20.0,20,-99.99,,,-99.99,,2013-05-05 00:51:00,
2013-05-04 18:01:00,69.0,26.0,-100.00,SW,225,11.0,19.0,20,-99.99,,,-99.99,,2013-05-05 01:01:00,
2013-05-04 18:11:00,68.0,27.0,-100.00,SW,218,12.0,19.0,21,-99.99,,,-99.99,,2013-05-05 01:11:00,
2013-05-04 18:21:00,68.0,29.0,-100.00,SW,218,12.0,18.0,23,-99.99,,,-99.99,,2013-05-05 01:21:00,
2013-05-04 18:32:00,68.0,29.0,-100.00,SW,225,10.0,16.0,23,-99.99,,,-99.99,,2013-05-05 01:32:00,
2013-05-04 18:42:00,67.0,27.0,-100.00,SW,219,10.0,15.0,22,-99.99,,,-99.99,,2013-05-05 01:42:00,
2013-05-04 18:52:00,67.0,26.0,-100.00,SW,223,10.0,15.0,21,-99.99,,,-99.99,,2013-05-05 01:52:00,
2013-05-04 19:02:00,66.0,23.0,-100.00,SW,225,11.0,18.0,19,-99.99,,,-99.99,,2013-05-05 02:02:00,
2013-05-04 19:11:00,66.0,21.0,-100.00,SW,223,10.0,16.0,18,-99.99,,,-99.99,,2013-05-05 02:11:00,
2013-05-04 19:21:00,65.0,19.0,-100.00,SW,219,11.0,15.0,17,-99.99,,,-99.99,,2013-05-05 02:21:00,
2013-05-04 19:31:00,65.0,20.0,-100.00,SW,220,10.0,15.0,18,-99.99,,,-99.99,,2013-05-05 02:31:00,
2013-05-04 19:42:00,64.0,21.0,-100.00,SW,225,10.0,16.0,19,-99.99,,,-99.99,,2013-05-05 02:42:00,
2013-05-04 19:52:00,63.0,24.0,-100.00,SW,226,9.0,13.0,22,-99.99,,,-99.99,,2013-05-05 02:52:00,
2013-05-04 20:01:00,62.0,27.0,-100.00,SW,227,9.0,15.0,26,-99.99,,,-99.99,,2013-05-05 03:01:00,
2013-05-04 20:11:00,61.0,28.0,-100.00,SW,224,8.0,12.0,28,-99.99,,,-99.99,,2013-05-05 03:11:00,
2013-05-04 20:21:00,60.0,27.0,-100.00,SW,216,6.0,10.0,28,-99.99,,,-99.99,,2013-05-05 03:21:00,
2013-05-04 20:32:00,60.0,28.0,-100.00,SW,215,5.0,9.0,29,-99.99,,,-99.99,,2013-05-05 03:32:00,
2013-05-04 20:42:00,59.0,26.0,-100.00,SW,222,5.0,8.0,28,-99.99,,,-99.99,,2013-05-05 03:42:00,
2013-05-04 20:52:00,59.0,28.0,-100.00,West,267,3.0,7.0,31,-99.99,,,-99.99,,2013-05-05 03:52:00,
2013-05-04 21:02:00,58.0,28.0,-100.00,West,273,2.0,5.0,32,-99.99,,,-99.99,,2013-05-05 04:02:00,
2013-05-04 21:12:00,57.0,27.0,-100.00,WSW,253,2.0,4.0,32,-99.99,,,-99.99,,2013-05-05 04:12:00,
2013-05-04 21:22:00,57.0,27.0,-100.00,WSW,255,3.0,5.0,31,-99.99,,,-99.99,,2013-05-05 04:22:00,
2013-05-04 21:32:00,57.0,27.0,-100.00,WNW,302,2.0,4.0,32,-99.99,,,-99.99,,2013-05-05 04:32:00,
2013-05-04 21:43:00,56.0,27.0,-100.00,West,259,3.0,4.0,32,-99.99,,,-99.99,,2013-05-05 04:43:00,
2013-05-04 21:52:00,56.0,27.0,-100.00,West,267,3.0,4.0,33,-99.99,,,-99.99,,2013-05-05 04:52:00,
2013-05-04 22:02:00,56.0,28.0,-100.00,West,263,4.0,5.0,34,-99.99,,,-99.99,,2013-05-05 05:02:00,
2013-05-04 22:12:00,55.0,29.0,-100.00,WSW,254,3.0,5.0,37,-99.99,,,-99.99,,2013-05-05 05:12:00,
2013-05-04 22:21:00,54.0,30.0,-100.00,WSW,258,3.0,5.0,40,-99.99,,,-99.99,,2013-05-05 05:21:00,
2013-05-04 22:31:00,53.0,32.0,-100.00,West,269,2.0,4.0,45,-99.99,,,-99.99,,2013-05-05 05:31:00,
2013-05-04 22:42:00,53.0,33.0,-100.00,West,281,2.0,5.0,47,-99.99,,,-99.99,,2013-05-05 05:42:00,
2013-05-04 22:51:00,53.0,34.0,-100.00,NW,312,1.0,3.0,48,-99.99,,,-99.99,,2013-05-05 05:51:00,
2013-05-04 23:01:00,52.0,35.0,-100.00,West,270,2.0,3.0,53,-99.99,,,-99.99,,2013-05-05 06:01:00,
2013-05-04 23:11:00,52.0,38.0,-100.00,West,261,3.0,6.0,58,-99.99,,,-99.99,,2013-05-05 06:11:00,
2013-05-04 23:21:00,52.0,39.0,-100.00,WSW,243,3.0,5.0,61,-99.99,,,-99.99,,2013-05-05 06:21:00,
2013-05-04 23:31:00,52.0,40.0,-100.00,West,259,3.0,5.0,64,-99.99,,,-99.99,,2013-05-05 06:31:00,
2013-05-04 23:42:00,51.0,40.0,-100.00,West,281,2.0,4.0,67,-99.99,,,-99.99,,2013-05-05 06:42:00,
2013-05-04 23:51:00,51.0,40.0,-100.00,NW,314,2.0,3.0,67,-99.99,,,-99.99,,2013-05-05 06:51:00,